Location: *
(50.8512°N, 5.6907°E)
Time: 23:59:51
(UTC+00:00)

Cosmos 1328 - Pass Details

Date: 09 April 2020
Orbit: 539 x 544 km, 82.5° (Epoch: 04 June)

Event Time Altitude Azimuth Distance (km) Brightness Sun altitude
Rises 19:03:29 0° 349° (N) 2,724 7.9 -6.8°
Reaches altitude 10° 19:05:39 10° 349° (N) 1,826 7.0 -7.1°
Maximum altitude 19:09:41 86° 261° (W) 555 3.9 -7.7°
Drops below altitude 10° 19:13:40 10° 173° (S) 1,812 6.2 -8.3°
Sets 19:15:49 0° 173° (S) 2,700 7.0 -8.6°
